TimeEST,TemperatureF,Dew PointF,Humidity,Sea Level PressureIn,VisibilityMPH,Wind Direction,Wind SpeedMPH,Gust SpeedMPH,PrecipitationIn,Events,Conditions,WindDirDegrees,DateUTC
12:03 AM,21.2,15.8,80,29.86,10.0,NW,10.4,17.3,N/A,,Clear,310,2010-01-31 05:03:00
12:22 AM,21.2,15.8,80,29.86,10.0,WNW,6.9,-,N/A,,Clear,300,2010-01-31 05:22:00
12:42 AM,19.4,15.8,86,29.86,10.0,WNW,6.9,-,N/A,,Scattered Clouds,300,2010-01-31 05:42:00
1:02 AM,19.4,15.8,86,29.87,10.0,West,3.5,-,N/A,,Scattered Clouds,270,2010-01-31 06:02:00
1:22 AM,19.4,15.8,86,29.88,10.0,West,3.5,-,N/A,,Scattered Clouds,270,2010-01-31 06:22:00
1:43 AM,19.4,15.8,86,29.89,10.0,West,4.6,-,N/A,,Clear,280,2010-01-31 06:43:00
2:02 AM,19.4,17.6,93,29.90,10.0,Calm,Calm,-,N/A,,Clear,0,2010-01-31 07:02:00
2:22 AM,19.4,15.8,86,29.91,10.0,WNW,13.8,18.4,N/A,,Clear,290,2010-01-31 07:22:00
2:42 AM,19.4,15.8,86,29.91,10.0,WNW,18.4,26.5,N/A,,Scattered Clouds,290,2010-01-31 07:42:00
3:02 AM,19.4,15.8,86,29.91,10.0,WNW,16.1,29.9,N/A,,Clear,300,2010-01-31 08:02:00
3:22 AM,19.4,15.8,86,29.92,10.0,WNW,11.5,21.9,N/A,,Clear,300,2010-01-31 08:22:00
3:42 AM,19.4,15.8,86,29.92,10.0,Calm,Calm,-,N/A,,Scattered Clouds,0,2010-01-31 08:42:00
4:02 AM,19.4,15.8,86,29.93,10.0,West,3.5,-,N/A,,Scattered Clouds,280,2010-01-31 09:02:00
4:22 AM,17.6,14.0,86,29.94,10.0,WNW,5.8,-,N/A,,Scattered Clouds,300,2010-01-31 09:22:00
4:42 AM,17.6,15.8,93,29.94,10.0,Calm,Calm,-,N/A,,Clear,0,2010-01-31 09:42:00
5:02 AM,17.6,15.8,93,29.96,10.0,Calm,Calm,-,N/A,,Clear,0,2010-01-31 10:02:00
5:22 AM,17.6,14.0,86,29.96,10.0,Calm,Calm,-,N/A,,Clear,0,2010-01-31 10:22:00
5:42 AM,17.6,14.0,86,29.97,10.0,Calm,Calm,-,N/A,,Clear,0,2010-01-31 10:42:00
6:02 AM,17.6,14.0,86,29.99,10.0,West,5.8,-,N/A,,Clear,270,2010-01-31 11:02:00
6:22 AM,17.6,14.0,86,30.00,10.0,WSW,3.5,-,N/A,,Clear,240,2010-01-31 11:22:00
6:42 AM,17.6,12.2,79,30.00,10.0,West,5.8,-,N/A,,Clear,280,2010-01-31 11:42:00
7:02 AM,17.6,12.2,79,30.01,10.0,WNW,4.6,-,N/A,,Clear,300,2010-01-31 12:02:00
7:22 AM,17.6,12.2,79,30.02,10.0,WNW,3.5,-,N/A,,Clear,290,2010-01-31 12:22:00
7:42 AM,17.6,12.2,79,30.04,10.0,West,10.4,-,N/A,,Clear,270,2010-01-31 12:42:00
8:02 AM,19.4,12.2,74,30.04,10.0,NW,3.5,-,N/A,,Clear,310,2010-01-31 13:02:00
8:22 AM,19.4,10.4,68,30.05,10.0,NNW,3.5,-,N/A,,Clear,340,2010-01-31 13:22:00
8:42 AM,21.2,10.4,63,30.06,10.0,NW,3.5,-,N/A,,Clear,320,2010-01-31 13:42:00
9:22 AM,23.0,10.4,59,30.08,10.0,Calm,Calm,-,N/A,,Clear,0,2010-01-31 14:22:00
9:43 AM,23.0,10.4,59,30.09,10.0,Calm,Calm,-,N/A,,Clear,0,2010-01-31 14:43:00
10:02 AM,26.6,12.2,55,30.10,10.0,Calm,Calm,-,N/A,,Clear,0,2010-01-31 15:02:00
10:22 AM,26.6,10.4,51,30.11,10.0,Calm,Calm,-,N/A,,Clear,0,2010-01-31 15:22:00
10:42 AM,26.6,10.4,51,30.11,10.0,Calm,Calm,-,N/A,,Clear,0,2010-01-31 15:42:00
11:02 AM,28.4,10.4,47,30.12,10.0,Calm,Calm,-,N/A,,Clear,0,2010-01-31 16:02:00
11:22 AM,28.4,10.4,47,30.12,10.0,NNE,3.5,-,0.01,,Clear,20,2010-01-31 16:22:00
11:44 AM,30.2,10.4,44,30.11,10.0,North,4.6,-,0.01,,Clear,350,2010-01-31 16:44:00
12:02 PM,30.2,8.6,40,30.10,10.0,Calm,Calm,-,N/A,,Clear,0,2010-01-31 17:02:00
12:22 PM,32.0,8.6,38,30.10,10.0,NNW,4.6,-,N/A,,Clear,330,2010-01-31 17:22:00
12:42 PM,32.0,6.8,35,30.09,10.0,North,3.5,-,0.01,,Clear,350,2010-01-31 17:42:00
1:02 PM,33.8,6.8,32,30.09,10.0,North,3.5,-,N/A,,Clear,350,2010-01-31 18:02:00
1:22 PM,33.8,8.6,35,30.09,10.0,Calm,Calm,-,N/A,,Clear,0,2010-01-31 18:22:00
1:42 PM,35.6,6.8,30,30.08,10.0,Calm,Calm,-,N/A,,Clear,0,2010-01-31 18:42:00
2:02 PM,35.6,6.8,30,30.08,10.0,Calm,Calm,-,N/A,,Clear,0,2010-01-31 19:02:00
2:22 PM,37.4,6.8,28,30.08,10.0,WNW,9.2,-,N/A,,Clear,290,2010-01-31 19:22:00
2:42 PM,37.4,5.0,26,30.08,10.0,West,8.1,-,N/A,,Clear,270,2010-01-31 19:42:00
3:02 PM,37.4,6.8,28,30.08,10.0,West,12.7,16.1,N/A,,Clear,280,2010-01-31 20:02:00
3:22 PM,35.6,6.8,30,30.09,10.0,West,10.4,-,N/A,,Clear,280,2010-01-31 20:22:00
3:42 PM,37.4,3.2,24,30.09,10.0,NW,9.2,-,N/A,,Clear,310,2010-01-31 20:42:00
4:02 PM,37.4,6.8,28,30.09,10.0,West,9.2,-,N/A,,Clear,280,2010-01-31 21:02:00
4:22 PM,35.6,5.0,28,30.09,10.0,West,5.8,-,N/A,,Clear,280,2010-01-31 21:22:00
4:43 PM,37.4,6.8,28,30.09,10.0,West,9.2,-,N/A,,Clear,270,2010-01-31 21:43:00
5:02 PM,35.6,6.8,30,30.09,10.0,WNW,8.1,-,N/A,,Clear,290,2010-01-31 22:02:00
5:22 PM,35.6,6.8,30,30.10,10.0,West,6.9,-,N/A,,Clear,270,2010-01-31 22:22:00
5:42 PM,33.8,8.6,35,30.11,10.0,West,8.1,-,N/A,,Clear,280,2010-01-31 22:42:00
6:02 PM,32.0,10.4,41,30.12,10.0,West,8.1,-,N/A,,Clear,280,2010-01-31 23:02:00
6:22 PM,32.0,10.4,41,30.12,10.0,West,6.9,-,N/A,,Clear,270,2010-01-31 23:22:00
6:42 PM,32.0,6.8,35,30.13,10.0,West,9.2,-,N/A,,Clear,270,2010-01-31 23:42:00
7:02 PM,32.0,6.8,35,30.14,10.0,WNW,9.2,-,N/A,,Clear,290,2010-02-01 00:02:00
7:22 PM,30.2,8.6,40,30.14,10.0,West,9.2,-,N/A,,Clear,280,2010-02-01 00:22:00
7:42 PM,32.0,5.0,32,30.14,10.0,WNW,9.2,-,N/A,,Clear,290,2010-02-01 00:42:00
8:02 PM,32.0,3.2,30,30.15,10.0,West,10.4,-,N/A,,Clear,280,2010-02-01 01:02:00
8:22 PM,32.0,-2.2,23,30.15,10.0,WNW,8.1,-,N/A,,Clear,290,2010-02-01 01:22:00
8:43 PM,32.0,-2.2,23,30.15,10.0,WNW,10.4,-,N/A,,Clear,290,2010-02-01 01:43:00
9:02 PM,30.2,-2.2,25,30.15,10.0,WNW,11.5,-,N/A,,Clear,290,2010-02-01 02:02:00
9:22 PM,30.2,-2.2,25,30.15,10.0,WNW,12.7,-,N/A,,Clear,290,2010-02-01 02:22:00
9:42 PM,30.2,-0.4,27,30.16,10.0,West,15.0,-,N/A,,Clear,280,2010-02-01 02:42:00
10:02 PM,30.2,-0.4,27,30.16,10.0,West,15.0,-,N/A,,Clear,280,2010-02-01 03:02:00
10:22 PM,30.2,-0.4,27,30.16,10.0,WNW,15.0,19.6,N/A,,Clear,290,2010-02-01 03:22:00
10:42 PM,30.2,-0.4,27,30.16,10.0,NW,11.5,-,N/A,,Clear,310,2010-02-01 03:42:00
11:02 PM,30.2,-0.4,27,30.16,10.0,NW,12.7,-,N/A,,Clear,310,2010-02-01 04:02:00
11:22 PM,30.2,1.4,29,30.16,10.0,WNW,16.1,19.6,N/A,,Clear,300,2010-02-01 04:22:00
11:42 PM,30.2,1.4,29,30.17,10.0,WNW,15.0,-,N/A,,Clear,290,2010-02-01 04:42:00